Home > Weather > Velbert > Past weeks

Flag for Germany Weather for the Past 2 Weeks in Velbert, North Rhine-Westphalia, Germany

Now
55 °F

Passing clouds.


Feels Like: 52 °F
Forecast: 35 / 57 °F
Wind: 14 mph from Northwest

Location: Duesseldorf

Current Time: May 3, 2016 at 12:51:04 PM

Latest Report: May 3, 2016 at 11:50 AM


Visibility: N/A

Pressure: 30.18 "Hg

Humidity: 63%

Dew Point: 43 °F

Location of VelbertLocation

Historic Weather in Velbert — Graph

°F

Velbert Temperature Yesterday

Maximum temperature yesterday: 68 °F (at 3:50 PM)
Minimum temperature yesterday: 36 °F (at 5:20 AM)
Average temperature yesterday: 54 °F

High & Low Weather Summary for the Past Weeks

 TemperatureHumidityPressure
High68 °F (Apr 21, 3:50 PM)100% (Apr 20, 4:20 AM)30.48 "Hg (Apr 20, 4:20 AM)
Low32 °F (Apr 20, 4:50 AM)34% (Apr 20, 4:50 PM)29.50 "Hg (Apr 26, 8:20 AM)
Average47 °F72%30.04 "Hg
* Reported Apr 18 11:20 AM — May 3 11:20 AM, Velbert, Weather by CustomWeather, © 2016

Note: Actual official high and low records may vary slightly from our data, if they occured in-between our weather recording intervals... More about our weather records

Advertising

Velbert Weather History for the Previous 24 Hours

Scroll right to see more
 ConditionsComfort  
Time TempWeatherWind HumidityBarometerVisibility
11:20 AM
Tue, May 3
54 °FScattered clouds.15 mph67%30.18 "HgN/A
10:50 AM54 °FScattered clouds.12 mph72%30.15 "HgN/A
10:20 AM54 °FPassing clouds.12 mph77%30.15 "HgN/A
9:50 AM52 °FPassing clouds.8 mph82%30.15 "HgN/A
9:20 AM52 °FScattered clouds.9 mph82%30.15 "HgN/A
8:50 AM50 °FScattered clouds.9 mph94%30.12 "HgN/A
8:20 AM48 °FPassing clouds.9 mph94%30.12 "HgN/A
7:20 AM48 °FBroken clouds.10 mph100%30.09 "HgN/A
6:50 AM48 °FLight rain. Passing clouds.15 mph100%30.09 "HgN/A
6:20 AM52 °FLight rain. Partly cloudy.12 mph94%30.07 "Hg5 mi
5:50 AM52 °FLight rain. Mostly cloudy.10 mph94%30.07 "HgN/A
5:20 AM52 °FLight rain. Partly cloudy.9 mph88%30.07 "HgN/A
4:20 AM52 °FLight rain. Partly cloudy.7 mph82%30.07 "HgN/A
3:50 AM52 °FLight rain. Partly cloudy.7 mph82%30.07 "HgN/A
3:20 AM52 °FPartly cloudy.6 mph82%30.07 "HgN/A
2:50 AM52 °FClear.6 mph77%30.07 "Hg10 mi
2:20 AM52 °FClear.5 mph77%30.07 "Hg10 mi
1:50 AM54 °FClear.6 mph67%30.09 "Hg10 mi
1:20 AM54 °FClear.5 mph67%30.09 "Hg10 mi
12:50 AM52 °FClear.5 mph77%30.09 "Hg10 mi
12:20 AM52 °FClear.3 mph82%30.09 "Hg10 mi
11:50 PM
Mon, May 2
55 °FClear.3 mph72%30.09 "Hg10 mi
11:20 PM55 °FClear.3 mph67%30.09 "Hg10 mi
10:50 PM55 °FClear.6 mph67%30.09 "Hg10 mi
10:20 PM55 °FClear.5 mph72%30.09 "Hg10 mi
9:50 PM55 °FSunny.6 mph72%30.09 "Hg10 mi
9:20 PM57 °FSunny.5 mph67%30.09 "Hg10 mi
8:50 PM61 °FSunny.5 mph59%30.09 "Hg10 mi
8:20 PM63 °FSunny.5 mph52%30.09 "Hg10 mi
7:50 PM63 °FSunny.5 mph52%30.09 "Hg10 mi
7:20 PM64 °FSunny.5 mph49%30.09 "Hg10 mi
6:50 PM64 °FSunny.7 mph49%30.09 "Hg10 mi
6:20 PM66 °FSunny.6 mph40%30.12 "Hg10 mi
5:50 PM66 °FSunny.6 mph40%30.12 "Hg10 mi
5:20 PM68 °FPassing clouds.5 mph35%30.12 "HgN/A
4:50 PM68 °FSunny.2 mph38%30.15 "Hg10 mi
4:20 PM66 °FPassing clouds.6 mph40%30.15 "HgN/A
3:50 PM68 °FSunny.5 mph40%30.15 "Hg10 mi
3:20 PM66 °FSunny.5 mph37%30.18 "Hg10 mi
2:50 PM66 °FSunny.5 mph43%30.18 "Hg10 mi
2:20 PM64 °FPassing clouds.7 mph40%30.18 "HgN/A
1:50 PM64 °FSunny.5 mph40%30.21 "Hg10 mi
1:20 PM64 °FScattered clouds.7 mph46%30.21 "HgN/A
12:50 PM63 °FScattered clouds.6 mph56%30.24 "HgN/A
12:20 PM63 °FScattered clouds.5 mph56%30.24 "HgN/A
Weather by CustomWeather, © 2016

See weather overviewHow to use our weather pages